Time,TemperatureF,DewpointF,PressureIn,WindDirection,WindDirectionDegrees,WindSpeedMPH,WindSpeedGustMPH,Humidity,HourlyPrecipIn,Conditions,Clouds,dailyrainin,SoftwareType,DateUTC
2013-02-03 01:03:00,67.0,-99.9,-100.00,East,99,4.0,4.0,-999,-99.99,,,-99.99,,2013-02-03 09:03:00,
2013-02-03 01:10:00,69.0,-99.9,-100.00,SSE,153,0.0,4.0,-999,-99.99,,,-99.99,,2013-02-03 09:10:00,
2013-02-03 01:11:00,67.0,-99.9,-100.00,East,99,4.0,4.0,-999,-99.99,,,-99.99,,2013-02-03 09:11:00,
2013-02-03 01:22:00,68.0,-99.9,-100.00,West,277,1.0,2.0,-999,-99.99,,,-99.99,,2013-02-03 09:22:00,
2013-02-03 01:32:00,69.0,-99.9,-100.00,South,188,2.0,3.0,-999,-99.99,,,-99.99,,2013-02-03 09:32:00,
2013-02-03 01:42:00,69.0,-99.9,-100.00,South,188,2.0,3.0,-999,-99.99,,,-99.99,,2013-02-03 09:42:00,
2013-02-03 01:52:00,69.0,-99.9,-100.00,SSE,153,0.0,4.0,-999,-99.99,,,-99.99,,2013-02-03 09:52:00,
2013-02-03 02:02:00,69.0,-99.9,-100.00,SSE,153,0.0,4.0,-999,-99.99,,,-99.99,,2013-02-03 10:02:00,
2013-02-03 02:20:00,70.0,-99.9,-100.00,SW,235,0.0,5.0,-999,-99.99,,,-99.99,,2013-02-03 10:20:00,
2013-02-03 03:02:00,70.0,-99.9,-100.00,SW,235,0.0,5.0,-999,-99.99,,,-99.99,,2013-02-03 11:02:00,
2013-02-03 03:11:00,70.0,-99.9,-100.00,SW,235,0.0,5.0,-999,-99.99,,,-99.99,,2013-02-03 11:11:00,
2013-02-03 03:32:00,70.0,-99.9,-100.00,NW,318,2.0,6.0,-999,-99.99,,,-99.99,,2013-02-03 11:32:00,
2013-02-03 03:40:00,69.0,-99.9,-100.00,WNW,284,2.0,6.0,-999,-99.99,,,-99.99,,2013-02-03 11:40:00,
2013-02-03 03:42:00,70.0,-99.9,-100.00,NW,318,2.0,6.0,-999,-99.99,,,-99.99,,2013-02-03 11:42:00,
2013-02-03 04:22:00,69.0,-99.9,-100.00,WNW,284,2.0,6.0,-999,-99.99,,,-99.99,,2013-02-03 12:22:00,
2013-02-03 04:33:00,69.0,-99.9,-100.00,WNW,284,2.0,6.0,-999,-99.99,,,-99.99,,2013-02-03 12:33:00,
2013-02-03 06:53:00,66.0,-99.9,-100.00,WSW,256,2.0,6.0,-999,-99.99,,,-99.99,,2013-02-03 14:53:00,
2013-02-03 07:03:00,66.0,-99.9,-100.00,West,279,0.0,3.0,-999,-99.99,,,-99.99,,2013-02-03 15:03:00,
2013-02-03 07:12:00,66.0,-99.9,-100.00,West,279,0.0,3.0,-999,-99.99,,,-99.99,,2013-02-03 15:12:00,
2013-02-03 07:23:00,66.0,-99.9,-100.00,West,279,0.0,3.0,-999,-99.99,,,-99.99,,2013-02-03 15:23:00,
2013-02-03 07:33:00,66.0,-99.9,-100.00,West,263,1.0,4.0,-999,-99.99,,,-99.99,,2013-02-03 15:33:00,
2013-02-03 07:42:00,66.0,-99.9,-100.00,West,263,1.0,4.0,-999,-99.99,,,-99.99,,2013-02-03 15:42:00,
2013-02-03 07:52:00,66.0,-99.9,-100.00,West,263,1.0,4.0,-999,-99.99,,,-99.99,,2013-02-03 15:52:00,
2013-02-03 08:03:00,65.0,-99.9,-100.00,West,271,6.0,10.0,-999,-99.99,,,-99.99,,2013-02-03 16:03:00,
2013-02-03 08:12:00,65.0,-99.9,-100.00,West,271,6.0,10.0,-999,-99.99,,,-99.99,,2013-02-03 16:12:00,
2013-02-03 08:33:00,66.0,-99.9,-100.00,ENE,73,0.0,6.0,-999,-99.99,,,-99.99,,2013-02-03 16:33:00,
2013-02-03 08:42:00,66.0,-99.9,-100.00,ENE,73,0.0,6.0,-999,-99.99,,,-99.99,,2013-02-03 16:42:00,
2013-02-03 10:23:00,73.0,-99.9,-100.00,SSE,150,0.0,0.0,-999,-99.99,,,-99.99,,2013-02-03 18:23:00,
2013-02-03 10:33:00,73.0,-99.9,-100.00,SSE,150,0.0,0.0,-999,-99.99,,,-99.99,,2013-02-03 18:33:00,
2013-02-03 12:40:00,76.0,-99.9,-100.00,South,188,1.0,1.0,-999,-99.99,,,-99.99,,2013-02-03 20:40:00,
2013-02-03 13:22:00,76.0,-99.9,-100.00,South,188,1.0,1.0,-999,-99.99,,,-99.99,,2013-02-03 21:22:00,
2013-02-03 13:33:00,76.0,-99.9,-100.00,South,188,1.0,1.0,-999,-99.99,,,-99.99,,2013-02-03 21:33:00,
2013-02-03 16:22:00,77.0,-99.9,-100.00,South,172,0.0,0.0,-999,-99.99,,,-99.99,,2013-02-04 00:22:00,
2013-02-03 16:32:00,77.0,-99.9,-100.00,South,173,1.0,1.0,-999,-99.99,,,-99.99,,2013-02-04 00:32:00,
2013-02-03 16:42:00,77.0,-99.9,-100.00,South,173,1.0,1.0,-999,-99.99,,,-99.99,,2013-02-04 00:42:00,
2013-02-03 16:52:00,77.0,-99.9,-100.00,South,173,1.0,1.0,-999,-99.99,,,-99.99,,2013-02-04 00:52:00,
2013-02-03 17:32:00,75.0,-99.9,-100.00,West,271,0.0,0.0,-999,-99.99,,,-99.99,,2013-02-04 01:32:00,
2013-02-03 17:42:00,75.0,-99.9,-100.00,West,271,0.0,0.0,-999,-99.99,,,-99.99,,2013-02-04 01:42:00,
2013-02-03 17:52:00,74.0,-99.9,-100.00,East,99,2.0,3.0,-999,-99.99,,,-99.99,,2013-02-04 01:52:00,
2013-02-03 18:02:00,74.0,-99.9,-100.00,East,99,2.0,3.0,-999,-99.99,,,-99.99,,2013-02-04 02:02:00,
2013-02-03 18:10:00,72.0,-99.9,-100.00,NE,43,0.0,0.0,-999,-99.99,,,-99.99,,2013-02-04 02:10:00,
2013-02-03 18:11:00,74.0,-99.9,-100.00,East,99,2.0,3.0,-999,-99.99,,,-99.99,,2013-02-04 02:11:00,
2013-02-03 18:22:00,73.0,-99.9,-100.00,East,89,2.0,2.0,-999,-99.99,,,-99.99,,2013-02-04 02:22:00,
2013-02-03 18:32:00,73.0,-99.9,-100.00,East,89,2.0,2.0,-999,-99.99,,,-99.99,,2013-02-04 02:32:00,
2013-02-03 18:52:00,72.0,-99.9,-100.00,NE,43,0.0,0.0,-999,-99.99,,,-99.99,,2013-02-04 02:52:00,
2013-02-03 19:02:00,72.0,-99.9,-100.00,NE,43,0.0,0.0,-999,-99.99,,,-99.99,,2013-02-04 03:02:00,
2013-02-03 19:20:00,69.0,-99.9,-100.00,NE,54,0.0,1.0,-999,-99.99,,,-99.99,,2013-02-04 03:20:00,
2013-02-03 19:22:00,71.0,-99.9,-100.00,West,266,1.0,1.0,-999,-99.99,,,-99.99,,2013-02-04 03:22:00,
2013-02-03 19:32:00,71.0,-99.9,-100.00,West,266,1.0,1.0,-999,-99.99,,,-99.99,,2013-02-04 03:32:00,
2013-02-03 20:02:00,69.0,-99.9,-100.00,NE,54,0.0,1.0,-999,-99.99,,,-99.99,,2013-02-04 04:02:00,
2013-02-03 20:11:00,69.0,-99.9,-100.00,NE,54,0.0,1.0,-999,-99.99,,,-99.99,,2013-02-04 04:11:00,
2013-02-03 20:52:00,67.0,-99.9,-100.00,NW,304,0.0,1.0,-999,-99.99,,,-99.99,,2013-02-04 04:52:00,
2013-02-03 21:00:00,69.0,-99.9,-100.00,WNW,289,0.0,3.0,-999,-99.99,,,-99.99,,2013-02-04 05:00:00,
2013-02-03 21:03:00,68.0,-99.9,-100.00,ENE,57,2.0,2.0,-999,-99.99,,,-99.99,,2013-02-04 05:03:00,
2013-02-03 21:12:00,68.0,-99.9,-100.00,ENE,57,2.0,2.0,-999,-99.99,,,-99.99,,2013-02-04 05:12:00,
2013-02-03 21:52:00,69.0,-99.9,-100.00,WNW,289,0.0,3.0,-999,-99.99,,,-99.99,,2013-02-04 05:52:00,
2013-02-03 22:22:00,67.0,-99.9,-100.00,WSW,245,0.0,4.0,-999,-99.99,,,-99.99,,2013-02-04 06:22:00,
2013-02-03 22:32:00,67.0,-99.9,-100.00,West,279,1.0,5.0,-999,-99.99,,,-99.99,,2013-02-04 06:32:00,
2013-02-03 22:42:00,67.0,-99.9,-100.00,West,279,1.0,5.0,-999,-99.99,,,-99.99,,2013-02-04 06:42:00,
2013-02-03 22:52:00,67.0,-99.9,-100.00,West,279,1.0,5.0,-999,-99.99,,,-99.99,,2013-02-04 06:52:00,
2013-02-03 23:32:00,65.0,-99.9,-100.00,WSW,246,0.0,6.0,-999,-99.99,,,-99.99,,2013-02-04 07:32:00,
2013-02-03 23:42:00,65.0,-99.9,-100.00,WSW,246,0.0,6.0,-999,-99.99,,,-99.99,,2013-02-04 07:42:00,